Home   Weather   Christchurch Park   Past weeks
Flag for United Kingdom

Past Weather in Christchurch Park, England, United Kingdom — Yesterday and Last 2 Weeks

Now
59 °F

Passing clouds.


Feels Like: 58 °F
Forecast: 67 / 53 °F
Wind: 8 mph from North

Location: Wattisham

Current Time: Jul 2, 2020 at 9:14:54 pm

Latest Report: Jul 2, 2020 at 8:20 pm


Visibility: N/A

Pressure: 29.92 "Hg

Humidity: 77%

Dew Point: 52 °F

Location of Christchurch ParkLocation

Past Weather in Christchurch Park — Graph

°F

Christchurch Park Temperature Yesterday

Maximum temperature yesterday: 68 °F (at 10:50 am)
Minimum temperature yesterday: 59 °F (at 1:50 am)
Average temperature yesterday: 63 °F

High & Low Weather Summary for the Past Weeks

 TemperatureHumidityPressure
High82 °F (Jun 24, 2:20 pm)100% (Jun 18, 12:50 am)30.27 "Hg (Jun 18, 12:50 am)
Low46 °F (Jun 22, 4:50 am)34% (Jun 25, 3:50 pm)29.59 "Hg (Jun 27, 2:50 pm)
Average64 °F70%29.91 "Hg
* Reported Jun 17 7:20 pm — Jul 2 7:50 pm, Christchurch Park. Weather by CustomWeather, © 2020

Note: Actual official high and low records may vary slightly from our data, if they occured in-between our weather recording intervals... More about our weather records

Christchurch Park Weather History for the Previous 24 Hours

Scroll right to see more
 ConditionsComfort  
Time TempWeatherWind HumidityBarometerVisibility
7:50 pm
Thu, Jul 2
61 °FPassing clouds.8 mph72%29.92 "HgN/A
7:21 pm61 °FPassing clouds.9 mph77%29.92 "HgN/A
6:50 pm63 °FPassing clouds.12 mph73%29.89 "HgN/A
6:20 pm64 °FPassing clouds.13 mph68%29.89 "HgN/A
5:50 pm64 °FScattered clouds.12 mph68%29.89 "HgN/A
5:20 pm64 °FPartly sunny.12 mph68%29.86 "HgN/A
4:50 pm66 °FPartly sunny.10 mph73%29.86 "HgN/A
4:20 pm63 °FPartly sunny.9 mph83%29.86 "HgN/A
3:50 pm61 °FPartly sunny.7 mph88%29.86 "HgN/A
3:19 pm61 °FSprinkles. Partly sunny.8 mph83%29.86 "HgN/A
2:50 pm59 °FScattered clouds.10 mph82%29.86 "HgN/A
2:20 pm61 °FSprinkles. Partly sunny.7 mph88%29.83 "HgN/A
1:50 pm59 °FBroken clouds.7 mph88%29.83 "HgN/A
1:20 pm57 °FSprinkles. Partly sunny.6 mph88%29.83 "HgN/A
1:11 pm57 °FSprinkles. Partly sunny.8 mph88%29.83 "HgN/A
12:50 pm64 °FRain showers. Partly sunny.14 mph68%29.80 "HgN/A
12:20 pm64 °FScattered showers. Partly sunny.12 mph64%29.80 "HgN/A
11:50 am63 °FScattered clouds.12 mph68%29.80 "HgN/A
11:19 am63 °FPartly sunny.12 mph68%29.80 "HgN/A
10:50 am63 °FPartly sunny.15 mph64%29.80 "HgN/A
10:20 am63 °FPartly sunny.13 mph68%29.80 "HgN/A
9:50 am63 °FScattered clouds.13 mph68%29.80 "HgN/A
9:20 am61 °FPassing clouds.14 mph72%29.77 "HgN/A
8:50 am61 °FPassing clouds.13 mph77%29.77 "HgN/A
8:20 am59 °FPassing clouds.12 mph82%29.77 "HgN/A
7:50 am57 °FPassing clouds.13 mph82%29.77 "HgN/A
6:50 am54 °FScattered clouds.10 mph88%29.77 "HgN/A
5:50 am52 °FScattered clouds.9 mph88%29.77 "HgN/A
4:50 am52 °FPassing clouds.9 mph88%29.74 "HgN/A
3:50 am54 °FPassing clouds.9 mph82%29.74 "HgN/A
2:50 am55 °FPassing clouds.8 mph88%29.74 "HgN/A
1:50 am57 °FOvercast.9 mph88%29.74 "HgN/A
12:50 am57 °FOvercast.8 mph94%29.74 "HgN/A
12:20 am59 °FPartly cloudy.8 mph88%29.74 "HgN/A
11:50 pm
Wed, Jul 1
59 °FPassing clouds.9 mph88%29.74 "HgN/A
11:21 pm59 °FPassing clouds.8 mph94%29.74 "HgN/A
10:50 pm61 °FPartly cloudy.8 mph88%29.74 "HgN/A
10:20 pm61 °FPassing clouds.6 mph94%29.71 "HgN/A
9:50 pm61 °FSprinkles. Partly cloudy.8 mph94%29.71 "HgN/A
9:20 pm61 °FPartly cloudy.5 mph88%29.71 "HgN/A
Weather by CustomWeather, © 2020

See weather overview